F1ZUI-13 Weather Reports


Display with metric or nautical units.
time (UTC)temp
F
wind
direction
speed
MPH
gust
MPH
rain 1hr
in
rain 24hr
in
rain mn
in
humidity
%
barometer
mb
20260504100239 55 0 5.0 0.0 0.00 0.00 0.00 1014.7
20260504090118 57 315 5.0 0.0 0.00 0.00 0.00 1014.5
20260504081010 55 270 10.0 0.0 0.00 0.00 0.00 1014.2
20260504050604 51 270 4.0 0.0 0.00 0.00 0.00 1013.7
20260504045551 51 270 6.0 0.0 0.00 0.00 0.00 1013.7
20260504044512 51 270 7.0 0.0 0.00 0.00 0.00 1013.6
20260504043458 51 270 8.0 0.0 0.00 0.00 0.00 1013.6
20260504042445 51 225 8.0 0.0 0.00 0.00 0.00 1013.6
20260504041431 51 270 13.0 0.0 0.00 0.00 0.00 1013.6
20260504040418 49 270 10.0 0.0 0.00 0.00 0.00 1013.7
20260504033713 51 270 9.0 0.0 0.00 0.00 0.00 1013.8
20260504032700 51 270 6.0 0.0 0.00 0.00 0.00 1013.8
20260504031646 51 270 8.0 0.0 0.00 0.00 0.00 1013.9
20260504030632 51 270 7.0 0.0 0.00 0.00 0.00 1013.9
20260504025619 51 270 10.0 0.0 0.00 0.00 0.00 1013.8
20260504024605 51 225 10.0 0.0 0.00 0.00 0.00 1013.8
20260504023552 51 225 13.0 0.0 0.00 0.00 0.00 1013.8
20260504022538 51 225 8.0 0.0 0.00 0.00 0.00 1013.7
20260504021524 52 270 6.0 0.0 0.00 0.00 0.00 1013.8
20260504020511 51 270 10.0 0.0 0.00 0.00 0.00 1013.8
20260504015457 51 270 11.0 0.0 0.00 0.00 0.00 1013.9
20260504014443 51 270 8.0 0.0 0.00 0.00 0.00 1013.9
20260504013430 51 270 10.0 0.0 0.00 0.00 0.00 1013.8
20260504012416 52 225 8.0 0.0 0.00 0.00 0.00 1013.9
20260504011403 53 270 17.0 0.0 0.00 0.00 0.00 1013.6
20260504010349 53 270 10.0 0.0 0.00 0.00 0.00 1013.8
20260504005335 53 225 11.0 0.0 0.00 0.00 0.00 1013.9
20260504004322 53 270 9.0 0.0 0.00 0.00 0.00 1013.9
20260504003308 53 225 7.0 0.0 0.00 0.00 0.00 1014.0
20260504002254 54 270 12.0 0.0 0.00 0.00 0.00 1013.9
20260504001241 54 225 16.0 0.0 0.00 0.00 0.00 1013.9
20260504000227 54 270 9.0 0.0 0.00 0.00 0.00 1013.8
20260503235214 54 225 8.0 0.0 0.00 0.00 0.00 1013.8
20260503234200 55 225 12.0 0.0 0.00 0.00 0.00 1013.9
20260503233146 54 225 9.0 0.0 0.00 0.00 0.00 1013.7
20260503232133 54 225 11.0 0.0 0.00 0.00 0.00 1013.9
20260503231119 54 225 10.0 0.0 0.00 0.00 0.00 1013.8
20260503230106 54 225 11.0 0.0 0.00 0.00 0.00 1013.8
20260503225052 54 225 17.0 0.0 0.00 0.00 0.00 1013.8
20260503224038 54 225 12.0 0.0 0.00 0.00 0.00 1013.8
20260503222913 54 180 15.0 0.0 0.00 0.00 0.00 1013.8
20260503221859 54 225 13.0 0.0 0.00 0.00 0.00 1013.9
20260503220845 54 225 5.0 0.0 0.00 0.00 0.00 1014.2
20260503215832 55 180 5.0 0.0 0.00 0.00 0.00 1014.1
20260503214818 55 180 6.0 0.0 0.00 0.00 0.00 1014.1
20260503213804 55 225 5.0 0.0 0.00 0.00 0.00 1014.3
20260503212751 55 225 9.0 0.0 0.00 0.00 0.00 1014.4
20260503211737 55 225 4.0 0.0 0.00 0.00 0.00 1014.5
20260503210724 56 180 4.0 0.0 0.00 0.00 0.00 1014.5
20260503205710 56 0.0 0.0 0.00 0.00 0.00 1014.6
20260503204656 55 0.0 0.0 0.00 0.00 0.00 1014.6
20260503203643 55 0.0 0.0 0.00 0.00 0.00 1014.6
20260503202629 56 180 6.0 0.0 0.00 0.00 0.00 1014.5
20260503201615 56 180 6.0 0.0 0.00 0.00 0.00 1014.4
20260503200602 56 225 8.0 0.0 0.00 0.00 0.00 1014.4
20260503195548 55 225 9.0 0.0 0.00 0.00 0.00 1014.1
20260503194535 55 225 8.0 0.0 0.00 0.00 0.00 1014.0
20260503193521 55 225 11.0 0.0 0.00 0.00 0.00 1013.9
20260503192507 56 225 6.0 0.0 0.00 0.00 0.00 1013.9
20260503191454 56 225 6.0 0.0 0.00 0.00 0.00 1013.8
20260503190440 57 225 8.0 0.0 0.00 0.00 0.00 1013.7
20260503185426 57 225 10.0 0.0 0.00 0.00 0.00 1013.7
20260503184413 57 225 12.0 0.0 0.00 0.00 0.00 1013.6
20260503183359 57 225 12.0 0.0 0.00 0.00 0.00 1013.5
20260503182346 58 225 11.0 0.0 0.00 0.00 0.00 1013.4
20260503181332 58 225 15.0 0.0 0.00 0.00 0.00 1013.4
20260503180318 59 225 14.0 0.0 0.00 0.00 0.00 1013.3
20260503175305 59 225 14.0 0.0 0.00 0.00 0.00 1013.3
20260503174251 60 180 9.0 0.0 0.00 0.00 0.00 1013.4
20260503173237 60 180 9.0 0.0 0.00 0.00 0.00 1013.4
20260503172224 60 180 9.0 0.0 0.00 0.00 0.00 1013.3
20260503171210 61 225 11.0 0.0 0.00 0.00 0.00 1013.2
20260503170157 61 180 8.0 0.0 0.00 0.00 0.00 1013.4
20260503150927 63 0.0 0.0 0.00 0.00 0.00 1014.2
20260503130643 61 225 7.0 0.0 0.00 0.00 0.00 1014.8
20260503110359 68 225 14.0 0.0 0.00 0.00 0.00 1015.7